Weather in Prokopyevskaya Salda

Russia / Sverdlovsk Oblast     58°42′20″N   61°05′09″E
temp.,
°C
wind,
m/s
gust,
m/s
humid.,
%
clouds,
%
prec.,
mm/h
press.,
hPa
HPBL,
m
25 june, sat
sat2523:00+13w387745 0.0 1006155
02:00+11w27835 0.0 1005122
05:00+12w311820 0.0 1004340
08:00+17w59659 0.0 1003722
11:00+20wnw584911 0.0 10011485
14:00+20wnw584866 0.6 10012153
17:00+20nw5841100 0.6 10002736
20:00+16nnw49555 0.1 10011456
26 june, sun
sun2623:00+11nnw4106956 0.1 1002685
02:00+9nw5973100 0.0 10031077
05:00+7nw4990100 0.2 1002916
08:00+8nw3881100 0.0 1002883
11:00+10nnw3772100 0.1 1003863
14:00+8wnw41097100 1.4 1005744
17:00+7nw31097100 1.7 1006905
20:00+6nw41194100 0.1 1007884
27 june, mon
mon2723:00+6nw41292100 0.2 1008827
02:00+7nw41086100 0.1 1009693
05:00+7wnw3980100 0.1 1008524
08:00+9wnw347380 0.0 1008409
11:00+16w34475 0.0 10061383
14:00+12wnw5887100 0.6 1006693
17:00+9nne1297100 2.8 1005107
20:00+9nne3698100 1.2 1005386
28 june, tue
tue2823:00+7nnw3898100 2.3 1006486
02:00+7nnw41098100 1.3 1006679
05:00+5nnw41198100 2.4 1006660
08:00+5nnw4897100 0.7 1007916
11:00+5nw3997100 2.1 1007512
14:00+10nnw4783100 0.5 10071206
17:00+10nnw4885100 1.3 1008754
20:00+8nnw51087100 0.4 1009809
29 june, wed
wed2923:00+6nnw5997100 0.7 10101050
02:00+6nw51298100 2.2 1008785
05:00+8nnw61495100 3.9 1007845
08:00+9n5128330 0.0 1008933
11:00+15n711435 0.0 10081631
14:00+17n6104145 0.0 10082158
17:00+18n59385 0.0 10072403
20:00+15nnw2656100 0.0 1006239